TimeAST,TemperatureF,Dew PointF,Humidity,Sea Level PressureIn,VisibilityMPH,Wind Direction,Wind SpeedMPH,Gust SpeedMPH,PrecipitationIn,Events,Conditions,WindDirDegrees,DateUTC
12:56 AM,75.9,69.1,79,29.98,10.0,ESE,3.5,-,N/A,,Scattered Clouds,110,2013-03-20 04:56:00
1:56 AM,75.0,69.1,82,29.94,10.0,SE,3.5,-,N/A,,Scattered Clouds,140,2013-03-20 05:56:00
2:56 AM,73.9,68.0,82,29.92,10.0,Calm,Calm,-,N/A,,Partly Cloudy,0,2013-03-20 06:56:00
3:56 AM,75.0,68.0,79,29.92,10.0,Calm,Calm,-,N/A,,Partly Cloudy,0,2013-03-20 07:56:00
4:56 AM,75.0,66.9,76,29.93,10.0,Calm,Calm,-,N/A,,Scattered Clouds,0,2013-03-20 08:56:00
5:56 AM,73.9,68.0,82,29.94,10.0,Calm,Calm,-,N/A,,Partly Cloudy,0,2013-03-20 09:56:00
6:56 AM,73.9,68.0,82,29.95,10.0,Calm,Calm,-,N/A,,Scattered Clouds,0,2013-03-20 10:56:00
7:56 AM,78.1,68.0,71,29.96,10.0,Calm,Calm,-,N/A,,Partly Cloudy,0,2013-03-20 11:56:00
8:56 AM,81.0,69.1,67,29.98,10.0,ESE,8.1,-,N/A,,Scattered Clouds,110,2013-03-20 12:56:00
9:56 AM,82.0,68.0,62,29.98,10.0,South,5.8,-,N/A,,Scattered Clouds,170,2013-03-20 13:56:00
10:56 AM,86.0,66.0,51,29.99,10.0,East,9.2,-,N/A,,Scattered Clouds,100,2013-03-20 14:56:00
11:56 AM,86.0,69.1,57,29.96,10.0,NE,13.8,-,N/A,,Scattered Clouds,50,2013-03-20 15:56:00
12:56 PM,87.1,69.1,55,29.92,10.0,East,16.1,-,N/A,,Scattered Clouds,80,2013-03-20 16:56:00
1:56 PM,84.9,69.1,59,29.89,10.0,ENE,15.0,-,N/A,,Scattered Clouds,60,2013-03-20 17:56:00
2:56 PM,84.9,70.0,61,29.88,10.0,ENE,15.0,-,N/A,,Scattered Clouds,60,2013-03-20 18:56:00
3:56 PM,87.1,66.9,51,29.87,10.0,Variable,5.8,-,N/A,,Scattered Clouds,0,2013-03-20 19:56:00
4:56 PM,86.0,64.9,49,29.88,10.0,SSE,6.9,-,N/A,,Scattered Clouds,150,2013-03-20 20:56:00
5:56 PM,82.9,64.0,53,29.88,10.0,SSE,5.8,-,N/A,,Scattered Clouds,150,2013-03-20 21:56:00
6:56 PM,82.0,64.0,54,29.90,10.0,Variable,5.8,-,N/A,,Scattered Clouds,0,2013-03-20 22:56:00
7:56 PM,80.1,69.1,69,29.91,10.0,SSE,6.9,-,N/A,,Partly Cloudy,150,2013-03-20 23:56:00
8:56 PM,79.0,69.1,72,29.93,10.0,ESE,3.5,-,N/A,,Partly Cloudy,120,2013-03-21 00:56:00
9:56 PM,78.1,68.0,71,29.94,10.0,East,3.5,-,N/A,,Scattered Clouds,90,2013-03-21 01:56:00
10:56 PM,78.1,70.0,76,29.93,10.0,Calm,Calm,-,N/A,,Scattered Clouds,0,2013-03-21 02:56:00
11:56 PM,75.0,70.0,84,29.92,10.0,ENE,3.5,-,N/A,,Partly Cloudy,70,2013-03-21 03:56:00